CW8916 Weather Reports


time (UTC)temp
F
wind
direction
speed
knots
gust
knots
rain 1hr
in
rain 24hr
in
rain mn
in
humidity
%
barometer
mb
20260502161628 56 311 2.6 5.2 0.00 0.00 0.00 43 1021.7
20260502160629 55 24 1.7 4.3 0.00 0.00 0.00 41 1021.6
20260502151616 50 290 0.0 3.5 0.00 0.00 0.00 52 1021.7
20260502150635 50 306 2.6 3.5 0.00 0.00 0.00 50 1021.7
20260502130621 42 142 0.9 1.7 0.00 0.00 0.00 58 1021.6
20260502123632 41 217 2.6 3.5 0.00 0.00 0.00 58 1021.4
20260502122630 41 200 3.5 4.3 0.00 0.00 0.00 57 1021.4
20260502121653 42 189 2.6 3.5 0.00 0.00 0.00 56 1021.5
20260502120633 42 186 1.7 4.3 0.00 0.00 0.00 58 1021.4
20260502115624 41 188 1.7 2.6 0.00 0.00 0.00 60 1021.3
20260502114645 40 209 1.7 2.6 0.00 0.00 0.00 63 1021.3
20260502113621 40 271 0.9 3.5 0.00 0.00 0.00 62 1021.4
20260502112621 43 210 3.5 5.2 0.00 0.00 0.00 55 1021.5
20260502111619 43 175 3.5 6.1 0.00 0.00 0.00 56 1021.4
20260502110620 43 171 4.3 7.0 0.00 0.00 0.00 56 1021.5
20260502105615 42 177 1.7 4.3 0.00 0.00 0.00 57 1021.4
20260502104615 42 204 2.6 4.3 0.00 0.00 0.00 58 1021.6
20260502103655 43 184 2.6 4.3 0.00 0.00 0.00 56 1021.5
20260502102633 44 189 2.6 5.2 0.00 0.00 0.00 55 1021.6
20260502101636 43 194 4.3 7.0 0.00 0.00 0.00 56 1021.5
20260502100616 43 200 2.6 5.2 0.00 0.00 0.00 56 1021.4
20260502090632 44 176 1.7 3.5 0.00 0.00 0.00 56 1021.3
20260502070640 48 163 3.5 4.3 0.00 0.00 0.00 48 1021.2
20260502065631 47 202 2.6 4.3 0.00 0.00 0.00 50 1021.0
20260502064630 48 190 4.3 6.1 0.00 0.00 0.00 49 1021.0
20260502063629 49 174 2.6 5.2 0.00 0.00 0.00 47 1020.9
20260502062628 49 140 2.6 4.3 0.00 0.00 0.00 47 1020.9
20260502061626 50 192 0.0 2.6 0.00 0.00 0.00 45 1020.7
20260502060634 50 138 0.9 3.5 0.00 0.00 0.00 44 1020.6
20260502055646 50 157 2.6 4.3 0.00 0.00 0.00 45 1020.5
20260502054624 50 190 4.3 7.0 0.00 0.00 0.00 45 1020.5
20260502053628 50 159 4.3 6.1 0.00 0.00 0.00 45 1020.4
20260502052631 51 185 2.6 5.2 0.00 0.00 0.00 44 1020.5
20260502051631 51 174 2.6 5.2 0.00 0.00 0.00 44 1020.4
20260502050631 51 182 4.3 6.1 0.00 0.00 0.00 44 1020.4
20260502045622 51 186 3.5 7.0 0.00 0.00 0.00 44 1020.4
20260502044623 51 191 3.5 6.1 0.00 0.00 0.00 44 1020.4
20260502043626 50 173 4.3 7.8 0.00 0.00 0.00 45 1020.4
20260502042624 51 154 6.1 8.7 0.00 0.00 0.00 43 1020.3
20260502041644 52 150 3.5 6.1 0.00 0.00 0.00 43 1020.4
20260502040621 53 165 3.5 5.2 0.00 0.00 0.00 41 1020.4
20260502035633 54 159 2.6 4.3 0.00 0.00 0.00 39 1020.3
20260502034633 54 161 3.5 6.1 0.00 0.00 0.00 38 1020.2
20260502033631 53 161 4.3 7.0 0.00 0.00 0.00 39 1019.9
20260502032651 53 170 4.3 7.0 0.00 0.00 0.00 42 1019.9
20260502031634 54 196 4.3 7.0 0.00 0.00 0.00 41 1019.7
20260502030633 55 170 4.3 5.2 0.00 0.00 0.00 37 1019.5
20260502025626 55 180 4.3 5.2 0.00 0.00 0.00 38 1019.3
20260502024626 56 167 4.3 5.2 0.00 0.00 0.00 37 1019.2
20260502023627 56 168 3.5 5.2 0.00 0.00 0.00 38 1019.2
20260502022627 56 162 3.5 4.3 0.00 0.00 0.00 39 1019.3
20260502021626 57 173 4.3 4.3 0.00 0.00 0.00 38 1019.2
20260502020647 59 153 1.7 3.5 0.00 0.00 0.00 37 1019.2
20260502015621 60 185 1.7 2.6 0.00 0.00 0.00 35 1019.1
20260502014622 60 211 1.7 2.6 0.00 0.00 0.00 32 1019.1
20260502013624 61 250 0.9 2.6 0.00 0.00 0.00 33 1019.1
20260502012645 62 287 1.7 3.5 0.00 0.00 0.00 30 1019.1
20260502011625 63 291 2.6 5.2 0.00 0.00 0.00 30 1019.1
20260502010626 64 296 5.2 7.0 0.00 0.00 0.00 30 1019.1
20260502005638 65 331 4.3 8.7 0.00 0.00 0.00 26 1019.2
20260502004633 65 342 6.1 9.6 0.00 0.00 0.00 26 1019.1
20260502003634 65 342 4.3 8.7 0.00 0.00 0.00 25 1019.1
20260502002633 65 360 5.2 8.7 0.00 0.00 0.00 25 1019.2
20260502001634 65 13 4.3 8.7 0.00 0.00 0.00 26 1019.2
20260502000639 65 319 4.3 7.8 0.00 0.00 0.00 26 1019.1
20260501235628 65 15 4.3 8.7 0.00 0.00 0.00 25 1019.2
20260501234626 65 11 7.0 11.3 0.00 0.00 0.00 26 1019.3
20260501233625 65 346 6.1 10.4 0.00 0.00 0.00 26 1019.2
20260501232628 65 5 5.2 9.6 0.00 0.00 0.00 24 1019.3
20260501231630 65 331 5.2 9.6 0.00 0.00 0.00 25 1019.3
20260501230629 65 19 3.5 10.4 0.00 0.00 0.00 24 1019.3
20260501225618 64 56 5.2 10.4 0.00 0.00 0.00 24 1019.5
20260501224617 64 333 5.2 9.6 0.00 0.00 0.00 25 1019.6
20260501223617 64 72 4.3 9.6 0.00 0.00 0.00 24 1019.7
20260501222621 64 335 6.1 11.3 0.00 0.00 0.00 26 1019.8
20260501221621 64 5 5.2 9.6 0.00 0.00 0.00 26 1019.9
20260501220620 63 30 5.2 11.3 0.00 0.00 0.00 27 1019.9
20260501215630 63 5 3.5 11.3 0.00 0.00 0.00 27 1020.1
20260501214629 63 27 7.0 11.3 0.00 0.00 0.00 27 1020.1
20260501213630 63 5 7.0 11.3 0.00 0.00 0.00 28 1020.1
20260501212628 63 346 6.1 10.4 0.00 0.00 0.00 27 1020.4
20260501211627 63 5 7.0 11.3 0.00 0.00 0.00 29 1020.4
20260501210615 62 36 6.1 10.4 0.00 0.00 0.00 28 1020.4
20260501205630 62 339 6.1 9.6 0.00 0.00 0.00 26 1020.5
20260501204630 62 35 6.1 10.4 0.00 0.00 0.00 27 1020.6
20260501203630 62 71 7.8 10.4 0.00 0.00 0.00 30 1020.7
20260501202629 62 51 2.6 7.8 0.00 0.00 0.00 30 1020.7
20260501201629 62 301 2.6 7.8 0.00 0.00 0.00 29 1020.7
20260501200633 62 53 0.9 14.8 0.00 0.00 0.00 28 1020.7
20260501195644 61 13 3.5 10.4 0.00 0.00 0.00 27 1021.0
20260501194623 61 37 0.9 7.8 0.00 0.00 0.00 28 1020.9
20260501193623 61 277 6.1 8.7 0.00 0.00 0.00 28 1021.0
20260501192623 60 38 4.3 10.4 0.00 0.00 0.00 31 1021.0
20260501191622 60 30 1.7 7.8 0.00 0.00 0.00 33 1021.2
20260501190621 60 37 1.7 5.2 0.00 0.00 0.00 31 1021.2
20260501185619 59 11 3.5 10.4 0.00 0.00 0.00 30 1021.3
20260501184617 59 277 2.6 6.1 0.00 0.00 0.00 30 1021.3
20260501183621 59 250 3.5 6.1 0.00 0.00 0.00 30 1021.4
20260501182642 58 237 1.7 7.0 0.00 0.00 0.00 30 1021.5
20260501181619 58 242 3.5 10.4 0.00 0.00 0.00 29 1021.6
20260501180632 58 134 2.6 7.0 0.00 0.00 0.00 29 1021.5
20260501175622 58 42 3.5 6.1 0.00 0.00 0.00 29 1021.7
20260501174642 58 30 1.7 4.3 0.00 0.00 0.00 32 1021.7
20260501173617 57 50 2.6 6.1 0.00 0.00 0.00 29 1022.0
20260501172622 56 194 2.6 7.0 0.00 0.00 0.00 30 1022.0
20260501171619 56 207 2.6 4.3 0.00 0.00 0.00 30 1022.0
20260501170619 55 201 2.6 4.3 0.00 0.00 0.00 29 1022.2
20260501165629 55 273 1.7 4.3 0.00 0.00 0.00 31 1022.2
20260501164628 54 17 1.7 7.0 0.00 0.00 0.00 37 1022.0
20260501163630 54 245 0.0 4.3 0.00 0.00 0.00 36 1022.2
20260501162629 53 308 1.7 4.3 0.00 0.00 0.00 38 1022.2